StationID,Date,MaxTemp,MinTemp,Precipitation,Snowfall,SnowDepth
"USC00503502","2000-05-01",51.08,39.02,38.00,0.00,0.00
"USC00503502","2000-05-02",57.02,39.02,3.00,0.00,0.00
"USC00503502","2000-05-03",55.94,39.02,0.00,0.00,0.00
"USC00503502","2000-05-04",55.94,37.04,5.00,0.00,0.00
"USC00503502","2000-05-05",55.94,37.94,0.00,0.00,0.00
"USC00503502","2000-05-06",59.00,37.94,0.00,0.00,0.00
"USC00503502","2000-05-07",57.92,42.98,0.00,0.00,0.00
"USC00503502","2000-05-08",62.06,33.98,0.00,0.00,0.00
"USC00503502","2000-05-09",64.94,33.98,0.00,0.00,0.00
"USC00503502","2000-05-10",64.94,37.04,0.00,0.00,0.00
"USC00503502","2000-05-11",64.04,37.04,0.00,0.00,0.00
"USC00503502","2000-05-12",64.04,39.92,0.00,0.00,0.00
"USC00503502","2000-05-13",57.92,44.96,0.00,0.00,0.00
"USC00503502","2000-05-14",48.92,44.06,0.00,0.00,0.00
"USC00503502","2000-05-15",53.06,42.08,3.00,0.00,0.00
"USC00503502","2000-05-16",53.06,39.92,23.00,0.00,0.00
"USC00503502","2000-05-17",51.98,41.00,5.00,0.00,0.00
"USC00503502","2000-05-18",57.02,44.06,8.00,0.00,0.00
"USC00503502","2000-05-19",51.08,42.08,8.00,0.00,0.00
"USC00503502","2000-05-20",53.96,41.00,13.00,0.00,0.00
"USC00503502","2000-05-21",46.04,35.96,3.00,0.00,0.00
"USC00503502","2000-05-22",51.98,39.02,91.00,0.00,0.00
"USC00503502","2000-05-23",51.08,42.08,25.00,0.00,0.00
"USC00503502","2000-05-24",51.98,39.92,0.00,0.00,0.00
"USC00503502","2000-05-25",55.04,35.06,0.00,0.00,0.00
"USC00503502","2000-05-26",62.06,39.02,61.00,0.00,0.00
"USC00503502","2000-05-27",,42.98,0.00,0.00,0.00
"USC00503502","2000-05-28",66.02,42.98,0.00,0.00,0.00
"USC00503502","2000-05-29",48.02,42.08,76.00,0.00,0.00
"USC00503502","2000-05-30",64.04,41.00,18.00,0.00,0.00
"USC00503502","2000-05-31",64.04,37.04,0.00,0.00,0.00
"USC00503502","2000-06-01",68.00,41.00,0.00,0.00,0.00
"USC00503502","2000-06-02",66.02,41.00,0.00,0.00,0.00
"USC00503502","2000-06-03",69.08,42.98,0.00,0.00,0.00
"USC00503502","2000-06-04",75.92,55.04,0.00,0.00,0.00
"USC00503502","2000-06-05",73.94,46.94,0.00,0.00,0.00
"USC00503502","2000-06-06",57.02,50.00,8.00,0.00,0.00
"USC00503502","2000-06-07",51.98,50.00,0.00,0.00,0.00
"USC00503502","2000-06-08",62.06,46.94,20.00,0.00,0.00
"USC00503502","2000-06-09",,44.06,0.00,0.00,0.00
"USC00503502","2000-06-10",,,,0.00,0.00
"USC00503502","2000-06-11",64.04,,,0.00,0.00
"USC00503502","2000-06-12",69.08,46.04,0.00,0.00,0.00
"USC00503502","2000-06-13",60.98,48.02,0.00,0.00,0.00
"USC00503502","2000-06-14",57.92,50.00,0.00,0.00,0.00
"USC00503502","2000-06-15",62.96,48.02,0.00,0.00,0.00
"USC00503502","2000-06-16",50.00,48.92,0.00,0.00,0.00
"USC00503502","2000-06-17",57.92,44.06,188.00,0.00,0.00
"USC00503502","2000-06-18",59.00,46.94,0.00,0.00,0.00
"USC00503502","2000-06-19",59.00,46.94,0.00,0.00,0.00
"USC00503502","2000-06-20",,46.94,0.00,0.00,0.00
"USC00503502","2000-06-21",53.06,46.04,0.00,0.00,0.00
"USC00503502","2000-06-22",60.08,44.96,0.00,0.00,0.00
"USC00503502","2000-06-23",71.06,39.92,0.00,0.00,0.00
"USC00503502","2000-06-24",68.00,44.06,0.00,0.00,0.00
"USC00503502","2000-06-25",66.92,48.02,0.00,0.00,0.00
"USC00503502","2000-06-26",71.06,53.06,0.00,0.00,0.00
"USC00503502","2000-06-27",69.08,53.06,0.00,0.00,0.00
"USC00503502","2000-06-28",69.08,53.96,0.00,0.00,0.00
"USC00503502","2000-06-29",62.06,48.92,91.00,0.00,0.00
"USC00503502","2000-06-30",50.00,46.94,0.00,0.00,0.00
"USC00503502","2000-07-01",59.00,42.98,353.00,0.00,0.00
"USC00503502","2000-07-02",60.08,48.02,0.00,0.00,0.00
"USC00503502","2000-07-03",68.00,50.00,0.00,0.00,0.00
"USC00503502","2000-07-04",69.98,46.94,0.00,0.00,0.00
"USC00503502","2000-07-05",68.00,48.92,0.00,0.00,0.00
"USC00503502","2000-07-06",64.04,53.06,0.00,0.00,0.00
"USC00503502","2000-07-07",64.04,51.98,0.00,0.00,0.00
"USC00503502","2000-07-08",71.96,46.04,0.00,0.00,0.00
"USC00503502","2000-07-09",66.92,51.08,0.00,0.00,0.00
"USC00503502","2000-07-10",66.92,53.96,0.00,0.00,0.00
"USC00503502","2000-07-11",57.02,51.98,0.00,0.00,0.00
"USC00503502","2000-07-12",66.02,51.98,3.00,0.00,0.00
"USC00503502","2000-07-13",66.02,46.94,0.00,0.00,0.00
"USC00503502","2000-07-14",60.98,46.94,0.00,0.00,0.00
"USC00503502","2000-07-15",60.08,53.06,0.00,0.00,0.00
"USC00503502","2000-07-16",62.06,51.98,0.00,0.00,0.00
"USC00503502","2000-07-17",59.00,53.06,56.00,0.00,0.00
"USC00503502","2000-07-18",66.02,53.06,0.00,0.00,0.00
"USC00503502","2000-07-19",,51.08,28.00,,0.00
"USC00503502","2000-07-20",64.04,,0.00,0.00,0.00
"USC00503502","2000-07-21",55.94,50.00,81.00,0.00,0.00
"USC00503502","2000-07-22",55.94,53.96,76.00,0.00,0.00
"USC00503502","2000-07-23",59.00,53.06,61.00,0.00,0.00
"USC00503502","2000-07-24",60.08,50.00,41.00,0.00,0.00
"USC00503502","2000-07-25",62.96,46.04,66.00,0.00,0.00
"USC00503502","2000-07-26",60.08,48.02,3.00,0.00,0.00
"USC00503502","2000-07-27",62.06,50.00,20.00,0.00,0.00
"USC00503502","2000-07-28",60.98,51.08,28.00,0.00,0.00
"USC00503502","2000-07-29",64.94,51.98,8.00,0.00,0.00
"USC00503502","2000-07-30",62.96,50.00,0.00,0.00,0.00
"USC00503502","2000-07-31",64.04,51.08,8.00,0.00,0.00
"USC00503502","2000-08-01",64.04,48.92,53.00,0.00,0.00
"USC00503502","2000-08-02",66.92,42.98,0.00,0.00,0.00
"USC00503502","2000-08-03",64.94,46.94,0.00,0.00,0.00
"USC00503502","2000-08-04",60.08,53.96,0.00,0.00,0.00
"USC00503502","2000-08-05",66.92,55.04,0.00,0.00,0.00
"USC00503502","2000-08-06",59.00,53.96,0.00,0.00,0.00
"USC00503502","2000-08-07",66.02,48.92,0.00,0.00,0.00
"USC00503502","2000-08-08",59.00,46.94,0.00,0.00,0.00
"USC00503502","2000-08-09",73.04,46.94,13.00,0.00,0.00
"USC00503502","2000-08-10",73.94,48.92,0.00,0.00,0.00
"USC00503502","2000-08-11",66.92,44.96,0.00,0.00,0.00
"USC00503502","2000-08-12",64.94,46.04,0.00,0.00,0.00
"USC00503502","2000-08-13",62.96,50.00,0.00,0.00,0.00
"USC00503502","2000-08-14",55.94,53.96,0.00,0.00,0.00
"USC00503502","2000-08-15",55.04,50.00,175.00,0.00,0.00
"USC00503502","2000-08-16",60.08,50.00,188.00,0.00,0.00
"USC00503502","2000-08-17",68.00,46.94,5.00,0.00,0.00
"USC00503502","2000-08-18",64.94,44.96,0.00,0.00,0.00
"USC00503502","2000-08-19",64.94,44.96,0.00,0.00,0.00
"USC00503502","2000-08-20",55.94,44.96,76.00,0.00,0.00
"USC00503502","2000-08-21",53.06,50.00,3.00,0.00,0.00
"USC00503502","2000-08-22",59.00,48.92,64.00,0.00,0.00
"USC00503502","2000-08-23",57.92,48.92,8.00,0.00,0.00
"USC00503502","2000-08-24",55.94,44.96,0.00,0.00,0.00
"USC00503502","2000-08-25",55.04,46.04,3.00,0.00,0.00
"USC00503502","2000-08-26",60.08,48.02,36.00,0.00,0.00
"USC00503502","2000-08-27",53.96,46.94,3.00,0.00,0.00
"USC00503502","2000-08-28",69.98,42.98,8.00,0.00,0.00
"USC00503502","2000-08-29",,42.08,0.00,0.00,0.00
"USC00503502","2000-08-30",59.00,51.98,0.00,0.00,0.00
"USC00503502","2000-08-31",69.08,46.94,0.00,0.00,0.00
"USC00503502","2000-09-01",64.04,44.06,0.00,0.00,0.00
"USC00503502","2000-09-02",62.06,37.04,0.00,0.00,0.00
"USC00503502","2000-09-03",50.00,37.04,0.00,0.00,0.00
"USC00503502","2000-09-04",51.08,46.04,64.00,0.00,0.00
"USC00503502","2000-09-05",57.92,46.94,112.00,0.00,0.00
"USC00503502","2000-09-06",,48.02,91.00,0.00,0.00
"USC00503502","2000-09-07",57.02,46.04,84.00,0.00,0.00
"USC00503502","2000-09-08",48.92,41.00,0.00,0.00,0.00
"USC00503502","2000-09-09",64.04,39.92,58.00,0.00,0.00
"USC00503502","2000-09-10",55.94,41.00,0.00,0.00,0.00
"USC00503502","2000-09-11",53.06,46.04,150.00,0.00,0.00
"USC00503502","2000-09-12",57.02,46.94,20.00,0.00,0.00
"USC00503502","2000-09-13",51.98,48.02,0.00,0.00,0.00
"USC00503502","2000-09-14",48.92,44.96,267.00,0.00,0.00
"USC00503502","2000-09-15",50.00,46.04,259.00,0.00,0.00
"USC00503502","2000-09-16",48.92,41.00,56.00,0.00,0.00
"USC00503502","2000-09-17",53.96,41.00,297.00,0.00,0.00
"USC00503502","2000-09-18",57.92,48.02,25.00,0.00,0.00
"USC00503502","2000-09-19",48.92,39.92,0.00,0.00,0.00
"USC00503502","2000-09-20",60.08,37.04,0.00,0.00,0.00
"USC00503502","2000-09-21",51.08,33.08,0.00,0.00,0.00
"USC00503502","2000-09-22",46.94,33.08,0.00,0.00,0.00
"USC00503502","2000-09-23",53.06,39.92,43.00,0.00,0.00
"USC00503502","2000-09-24",57.02,44.96,3.00,0.00,0.00
"USC00503502","2000-09-25",51.08,48.02,0.00,0.00,0.00
"USC00503502","2000-09-26",53.06,48.02,0.00,0.00,0.00
"USC00503502","2000-09-27",53.06,48.02,3.00,0.00,0.00
"USC00503502","2000-09-28",51.98,48.02,30.00,0.00,0.00
"USC00503502","2000-09-29",46.94,37.94,142.00,0.00,0.00
"USC00503502","2000-09-30",42.98,30.02,0.00,0.00,0.00
"USC00503502","2000-10-01",44.96,26.96,0.00,0.00,
"USC00503502","2000-10-02",44.06,28.04,0.00,0.00,0.00
"USC00503502","2000-10-03",44.96,30.02,8.00,0.00,0.00
"USC00503502","2000-10-04",46.04,24.08,0.00,0.00,0.00
"USC00503502","2000-10-05",48.92,30.02,79.00,0.00,0.00
"USC00503502","2000-10-06",53.96,33.98,569.00,0.00,0.00
"USC00503502","2000-10-07",53.06,44.06,318.00,0.00,0.00
"USC00503502","2000-10-08",46.94,42.98,127.00,0.00,0.00
"USC00503502","2000-10-09",48.02,41.00,216.00,0.00,0.00
"USC00503502","2000-10-10",46.94,42.98,41.00,0.00,0.00
"USC00503502","2000-10-11",51.08,39.92,198.00,0.00,0.00
"USC00503502","2000-10-12",50.00,44.96,137.00,0.00,0.00
"USC00503502","2000-10-13",46.94,44.06,462.00,0.00,0.00
"USC00503502","2000-10-14",44.96,42.98,25.00,0.00,0.00
"USC00503502","2000-10-15",48.02,39.92,518.00,0.00,0.00
"USC00503502","2000-10-16",46.94,39.92,20.00,0.00,0.00
"USC00503502","2000-10-17",48.92,39.92,13.00,0.00,0.00
"USC00503502","2000-10-18",44.96,37.94,0.00,0.00,0.00
"USC00503502","2000-10-19",44.06,37.04,5.00,0.00,0.00
"USC00503502","2000-10-20",42.98,37.04,23.00,0.00,0.00
"USC00503502","2000-10-21",44.96,33.98,13.00,0.00,0.00
"USC00503502","2000-10-22",,33.98,170.00,0.00,0.00
"USC00503502","2000-10-23",44.06,33.98,330.00,0.00,0.00
"USC00503502","2000-10-24",46.04,42.08,0.00,0.00,0.00
"USC00503502","2000-10-25",42.08,35.96,0.00,0.00,0.00
"USC00503502","2000-10-26",39.92,33.98,5.00,0.00,0.00
"USC00503502","2000-10-27",44.06,28.94,0.00,0.00,0.00
"USC00503502","2000-10-28",37.04,28.94,0.00,0.00,0.00
"USC00503502","2000-10-29",35.06,28.04,0.00,0.00,
"USC00503502","2000-10-30",42.08,26.06,20.00,18.00,25.00
"USC00503502","2000-10-31",42.08,26.06,310.00,0.00,0.00
"USC00503502","2000-11-01",41.00,39.92,43.00,0.00,
"USC00503502","2000-11-02",33.08,30.02,0.00,0.00,0.00
"USC00503502","2000-11-03",39.92,30.92,196.00,0.00,0.00
"USC00503502","2000-11-04",41.00,26.96,28.00,0.00,0.00
"USC00503502","2000-11-05",41.00,26.06,0.00,0.00,0.00
"USC00503502","2000-11-06",30.92,26.06,0.00,0.00,0.00
"USC00503502","2000-11-07",30.92,26.96,160.00,198.00,203.00
"USC00503502","2000-11-08",37.04,28.04,48.00,43.00,203.00
"USC00503502","2000-11-09",32.00,21.02,0.00,0.00,152.00
"USC00503502","2000-11-10",37.94,19.04,0.00,0.00,152.00
"USC00503502","2000-11-11",41.00,23.00,13.00,0.00,102.00
"USC00503502","2000-11-12",39.92,37.94,142.00,0.00,
"USC00503502","2000-11-13",39.92,30.92,38.00,0.00,
"USC00503502","2000-11-14",42.08,33.08,3.00,0.00,
"USC00503502","2000-11-15",39.92,37.04,33.00,0.00,0.00
"USC00503502","2000-11-16",39.02,33.08,5.00,0.00,0.00
"USC00503502","2000-11-17",42.98,33.08,165.00,0.00,0.00
"USC00503502","2000-11-18",37.04,32.00,3.00,0.00,0.00
"USC00503502","2000-11-19",35.06,28.94,20.00,0.00,0.00
"USC00503502","2000-11-20",44.06,30.02,8.00,0.00,0.00
"USC00503502","2000-11-21",44.06,33.08,290.00,0.00,0.00
"USC00503502","2000-11-22",46.94,37.04,531.00,0.00,0.00
"USC00503502","2000-11-23",41.00,35.06,91.00,0.00,0.00
"USC00503502","2000-11-24",42.08,35.96,124.00,0.00,0.00
"USC00503502","2000-11-25",39.02,33.08,33.00,0.00,0.00
"USC00503502","2000-11-26",39.92,33.08,269.00,0.00,0.00
"USC00503502","2000-11-27",39.92,37.04,43.00,0.00,0.00
"USC00503502","2000-11-28",33.98,33.08,3.00,,0.00
"USC00503502","2000-11-29",33.08,24.98,0.00,0.00,0.00
"USC00503502","2000-11-30",30.02,24.98,0.00,0.00,0.00
"USC00503502","2000-12-01",30.02,26.96,241.00,231.00,229.00
"USC00503502","2000-12-02",26.96,24.08,127.00,122.00,305.00
"USC00503502","2000-12-03",35.96,24.08,0.00,0.00,279.00
"USC00503502","2000-12-04",35.06,26.06,18.00,0.00,254.00
"USC00503502","2000-12-05",42.98,32.00,312.00,0.00,152.00
"USC00503502","2000-12-06",42.08,35.96,86.00,0.00,25.00
"USC00503502","2000-12-07",32.00,28.94,0.00,0.00,0.00
"USC00503502","2000-12-08",37.94,26.96,,0.00,0.00
"USC00503502","2000-12-09",26.96,21.02,0.00,0.00,0.00
"USC00503502","2000-12-10",26.96,19.94,0.00,0.00,0.00
"USC00503502","2000-12-11",32.00,24.08,,0.00,0.00
"USC00503502","2000-12-12",35.06,19.94,0.00,0.00,0.00
"USC00503502","2000-12-13",30.02,21.92,0.00,0.00,0.00
"USC00503502","2000-12-14",19.04,12.92,0.00,0.00,0.00
"USC00503502","2000-12-15",19.04,3.92,0.00,0.00,0.00
"USC00503502","2000-12-16",19.04,3.02,,0.00,0.00
"USC00503502","2000-12-17",30.92,8.06,0.00,0.00,0.00
"USC00503502","2000-12-18",37.04,10.04,272.00,323.00,330.00
"USC00503502","2000-12-19",33.98,30.02,81.00,0.00,178.00
"USC00503502","2000-12-20",24.08,19.94,10.00,0.00,152.00
"USC00503502","2000-12-21",33.98,14.00,0.00,0.00,152.00
"USC00503502","2000-12-22",28.04,17.06,0.00,0.00,152.00
"USC00503502","2000-12-23",30.92,15.08,0.00,0.00,152.00
"USC00503502","2000-12-24",33.98,24.08,,0.00,152.00
"USC00503502","2000-12-25",33.08,24.08,46.00,79.00,229.00
"USC00503502","2000-12-26",37.04,24.98,117.00,99.00,330.00
"USC00503502","2000-12-27",32.00,30.02,8.00,0.00,305.00
"USC00503502","2000-12-28",35.06,26.06,3.00,0.00,279.00
"USC00503502","2000-12-29",37.04,24.98,61.00,20.00,305.00
"USC00503502","2000-12-30",42.98,28.94,290.00,0.00,229.00
"USC00503502","2000-12-31",41.00,32.00,241.00,0.00,127.00
"USC00503502","2001-01-01",39.92,30.92,3.00,0.00,102.00
"USC00503502","2001-01-02",41.00,32.00,185.00,0.00,102.00
"USC00503502","2001-01-03",42.08,32.00,333.00,0.00,76.00
"USC00503502","2001-01-04",39.02,37.94,345.00,0.00,0.00
"USC00503502","2001-01-05",39.02,33.08,20.00,0.00,0.00
"USC00503502","2001-01-06",41.00,32.00,81.00,0.00,0.00
"USC00503502","2001-01-07",46.94,35.06,284.00,0.00,0.00
"USC00503502","2001-01-08",,37.04,69.00,0.00,0.00
"USC00503502","2001-01-09",35.96,35.06,51.00,0.00,0.00
"USC00503502","2001-01-10",30.92,26.96,48.00,0.00,0.00
"USC00503502","2001-01-11",33.08,19.04,0.00,0.00,0.00
"USC00503502","2001-01-12",37.94,17.96,0.00,0.00,0.00
"USC00503502","2001-01-13",37.94,19.94,81.00,109.00,152.00
"USC00503502","2001-01-14",37.94,19.94,3.00,0.00,51.00
"USC00503502","2001-01-15",39.02,35.06,79.00,0.00,0.00
"USC00503502","2001-01-16",35.96,35.96,71.00,0.00,0.00
"USC00503502","2001-01-17",42.08,32.00,53.00,0.00,0.00
"USC00503502","2001-01-18",41.00,33.08,185.00,0.00,0.00
"USC00503502","2001-01-19",39.92,33.08,84.00,0.00,0.00
"USC00503502","2001-01-20",37.94,28.94,3.00,0.00,0.00
"USC00503502","2001-01-21",37.94,30.02,46.00,0.00,0.00
"USC00503502","2001-01-22",39.02,30.02,71.00,0.00,0.00
"USC00503502","2001-01-23",35.96,30.92,218.00,0.00,0.00
"USC00503502","2001-01-24",35.06,30.02,74.00,0.00,0.00
"USC00503502","2001-01-25",35.96,28.94,0.00,0.00,0.00
"USC00503502","2001-01-26",37.94,30.02,0.00,0.00,0.00
"USC00503502","2001-01-27",37.94,30.02,145.00,0.00,0.00
"USC00503502","2001-01-28",37.04,32.00,140.00,0.00,0.00
"USC00503502","2001-01-29",33.08,28.94,5.00,13.00,0.00
"USC00503502","2001-01-30",32.00,24.98,10.00,5.00,25.00
"USC00503502","2001-01-31",41.00,24.98,127.00,107.00,127.00
"USC00503502","2001-02-01",42.08,30.92,262.00,0.00,51.00
"USC00503502","2001-02-02",33.98,30.92,53.00,56.00,102.00
"USC00503502","2001-02-03",37.04,30.92,53.00,0.00,51.00
"USC00503502","2001-02-04",33.08,26.06,10.00,8.00,51.00
"USC00503502","2001-02-05",28.94,21.02,0.00,0.00,51.00
"USC00503502","2001-02-06",28.94,12.02,0.00,0.00,51.00
"USC00503502","2001-02-07",26.06,12.02,69.00,109.00,152.00
"USC00503502","2001-02-08",30.92,21.02,15.00,25.00,152.00
"USC00503502","2001-02-09",24.98,8.96,0.00,0.00,152.00
"USC00503502","2001-02-10",26.06,8.96,0.00,0.00,152.00
"USC00503502","2001-02-11",24.98,6.98,0.00,0.00,102.00
"USC00503502","2001-02-12",24.08,10.04,0.00,0.00,102.00
"USC00503502","2001-02-13",28.04,15.98,173.00,112.00,203.00
"USC00503502","2001-02-14",33.98,17.06,119.00,114.00,305.00
"USC00503502","2001-02-15",33.08,10.04,0.00,0.00,305.00
"USC00503502","2001-02-16",,10.04,0.00,0.00,279.00
"USC00503502","2001-02-17",,,0.00,0.00,279.00
"USC00503502","2001-02-18",,,0.00,0.00,279.00
"USC00503502","2001-02-19",32.00,14.00,0.00,0.00,254.00
"USC00503502","2001-02-20",35.06,12.92,0.00,0.00,229.00
"USC00503502","2001-02-21",37.94,12.92,0.00,0.00,229.00
"USC00503502","2001-02-22",42.98,26.96,0.00,0.00,229.00
"USC00503502","2001-02-23",35.06,17.96,0.00,0.00,203.00
"USC00503502","2001-02-24",30.02,14.00,0.00,0.00,203.00
"USC00503502","2001-02-25",35.06,15.08,0.00,0.00,203.00
"USC00503502","2001-02-26",37.04,15.08,168.00,102.00,279.00
"USC00503502","2001-02-27",37.94,33.98,734.00,0.00,178.00
"USC00503502","2001-02-28",39.92,33.08,391.00,0.00,102.00
"USC00503502","2001-03-01",39.92,30.02,18.00,0.00,102.00
"USC00503502","2001-03-02",41.00,28.94,0.00,0.00,102.00
"USC00503502","2001-03-03",37.04,24.98,0.00,0.00,76.00
"USC00503502","2001-03-04",39.02,24.08,3.00,0.00,76.00
"USC00503502","2001-03-05",37.04,24.98,8.00,15.00,76.00
"USC00503502","2001-03-06",37.94,24.98,79.00,89.00,127.00
"USC00503502","2001-03-07",44.96,32.00,264.00,0.00,102.00
"USC00503502","2001-03-08",42.08,35.06,8.00,0.00,51.00
"USC00503502","2001-03-09",39.92,35.06,10.00,0.00,0.00
"USC00503502","2001-03-10",39.92,35.96,43.00,0.00,0.00
"USC00503502","2001-03-11",42.98,37.04,69.00,0.00,0.00
"USC00503502","2001-03-12",42.98,37.04,15.00,0.00,0.00
"USC00503502","2001-03-13",46.04,30.02,3.00,0.00,0.00
"USC00503502","2001-03-14",42.98,28.04,0.00,0.00,0.00
"USC00503502","2001-03-15",37.94,28.94,0.00,0.00,0.00
"USC00503502","2001-03-16",39.02,35.06,13.00,0.00,0.00
"USC00503502","2001-03-17",39.92,28.94,5.00,0.00,0.00
"USC00503502","2001-03-18",28.04,24.08,0.00,0.00,0.00
"USC00503502","2001-03-19",19.04,10.94,0.00,0.00,0.00
"USC00503502","2001-03-20",21.02,10.04,0.00,0.00,0.00
"USC00503502","2001-03-21",23.00,6.08,0.00,0.00,0.00
"USC00503502","2001-03-22",23.00,8.06,0.00,0.00,0.00
"USC00503502","2001-03-23",24.08,8.06,0.00,0.00,0.00
"USC00503502","2001-03-24",28.94,24.08,0.00,0.00,0.00
"USC00503502","2001-03-25",39.92,21.92,25.00,33.00,51.00
"USC00503502","2001-03-26",42.98,26.96,0.00,0.00,25.00
"USC00503502","2001-03-27",41.00,32.00,46.00,0.00,0.00
"USC00503502","2001-03-28",42.08,32.00,15.00,0.00,0.00
"USC00503502","2001-03-29",42.98,26.96,0.00,0.00,0.00
"USC00503502","2001-03-30",37.04,28.94,0.00,0.00,0.00
"USC00503502","2001-03-31",,30.92,84.00,38.00,25.00
"USC00503502","2001-04-01",42.98,26.96,0.00,0.00,0.00
"USC00503502","2001-04-02",41.00,19.94,0.00,0.00,0.00
"USC00503502","2001-04-03",39.92,21.02,0.00,0.00,0.00
"USC00503502","2001-04-04",42.08,24.98,91.00,0.00,0.00
"USC00503502","2001-04-05",44.96,35.06,0.00,0.00,0.00
"USC00503502","2001-04-06",44.96,26.96,0.00,0.00,0.00
"USC00503502","2001-04-07",50.00,24.98,0.00,0.00,0.00
"USC00503502","2001-04-08",46.94,26.06,0.00,0.00,0.00
"USC00503502","2001-04-09",39.92,28.04,23.00,0.00,0.00
"USC00503502","2001-04-10",51.08,24.98,0.00,0.00,0.00
"USC00503502","2001-04-11",48.92,26.06,0.00,0.00,0.00
"USC00503502","2001-04-12",44.06,35.06,28.00,0.00,0.00
"USC00503502","2001-04-13",46.94,35.96,0.00,0.00,0.00
"USC00503502","2001-04-14",44.06,35.06,28.00,0.00,0.00
"USC00503502","2001-04-15",48.92,28.94,0.00,0.00,0.00
"USC00503502","2001-04-16",55.04,28.94,0.00,0.00,0.00
"USC00503502","2001-04-17",55.04,28.94,0.00,0.00,0.00
"USC00503502","2001-04-18",53.06,30.92,5.00,0.00,0.00
"USC00503502","2001-04-19",53.96,30.92,0.00,0.00,0.00
"USC00503502","2001-04-20",55.04,30.92,0.00,0.00,0.00
"USC00503502","2001-04-21",57.02,30.92,0.00,0.00,0.00
"USC00503502","2001-04-22",55.94,35.96,3.00,0.00,0.00
"USC00503502","2001-04-23",50.00,37.04,33.00,0.00,0.00
"USC00503502","2001-04-24",51.08,37.04,58.00,0.00,0.00
"USC00503502","2001-04-25",46.04,37.94,23.00,0.00,0.00
"USC00503502","2001-04-26",51.08,35.96,3.00,0.00,0.00
"USC00503502","2001-04-27",48.92,37.04,165.00,0.00,0.00
"USC00503502","2001-04-28",50.00,35.96,18.00,0.00,0.00
"USC00503502","2001-04-29",46.94,35.06,8.00,0.00,0.00
"USC00503502","2001-04-30",46.04,37.94,43.00,0.00,0.00
"USC00503502","2001-05-01",53.06,37.94,0.00,0.00,0.00
"USC00503502","2001-05-02",51.08,35.96,5.00,0.00,0.00
"USC00503502","2001-05-03",41.00,33.98,264.00,0.00,0.00
"USC00503502","2001-05-04",46.04,39.02,48.00,0.00,0.00
"USC00503502","2001-05-05",48.92,37.04,0.00,0.00,0.00
"USC00503502","2001-05-06",44.96,37.04,0.00,0.00,0.00
"USC00503502","2001-05-07",53.06,37.04,3.00,0.00,0.00
"USC00503502","2001-05-08",46.94,37.94,79.00,0.00,0.00
"USC00503502","2001-05-09",46.04,39.02,53.00,0.00,0.00
"USC00503502","2001-05-10",46.94,37.04,0.00,0.00,0.00
"USC00503502","2001-05-11",51.98,37.94,8.00,0.00,0.00
"USC00503502","2001-05-12",50.00,33.98,15.00,0.00,0.00
"USC00503502","2001-05-13",60.08,42.08,5.00,0.00,0.00
"USC00503502","2001-05-14",48.92,39.92,0.00,0.00,0.00
"USC00503502","2001-05-15",60.98,39.92,8.00,0.00,0.00
"USC00503502","2001-05-16",55.94,42.08,3.00,0.00,0.00
"USC00503502","2001-05-17",57.02,39.02,20.00,0.00,0.00
"USC00503502","2001-05-18",53.06,39.02,3.00,0.00,0.00
"USC00503502","2001-05-19",55.04,33.08,15.00,0.00,0.00
"USC00503502","2001-05-20",57.02,42.08,0.00,0.00,0.00
"USC00503502","2001-05-21",51.98,41.00,20.00,0.00,0.00
"USC00503502","2001-05-22",53.96,41.00,13.00,0.00,0.00
"USC00503502","2001-05-23",51.98,41.00,28.00,0.00,0.00
"USC00503502","2001-05-24",48.92,42.08,0.00,0.00,0.00
"USC00503502","2001-05-25",53.06,35.96,0.00,0.00,0.00
"USC00503502","2001-05-26",55.04,33.08,0.00,0.00,0.00
"USC00503502","2001-05-27",64.04,44.06,23.00,0.00,0.00
"USC00503502","2001-05-28",53.06,46.04,43.00,0.00,0.00
"USC00503502","2001-05-29",64.94,48.92,0.00,0.00,0.00
"USC00503502","2001-05-30",57.92,42.08,0.00,0.00,0.00
"USC00503502","2001-05-31",62.06,44.06,25.00,0.00,0.00
"USC00503502","2001-07-01",68.00,50.00,56.00,0.00,0.00
"USC00503502","2001-07-02",62.96,51.08,15.00,0.00,0.00
"USC00503502","2001-07-03",64.04,51.08,38.00,0.00,0.00
"USC00503502","2001-07-04",71.06,51.08,0.00,0.00,0.00
"USC00503502","2001-07-05",62.06,50.00,0.00,0.00,0.00
"USC00503502","2001-07-06",55.04,48.02,33.00,0.00,0.00
"USC00503502","2001-07-07",53.96,48.02,292.00,0.00,0.00
"USC00503502","2001-07-08",53.06,48.02,33.00,0.00,0.00
"USC00503502","2001-07-09",60.08,46.94,41.00,0.00,0.00
"USC00503502","2001-07-10",57.92,46.94,30.00,0.00,0.00
"USC00503502","2001-07-11",57.02,50.00,0.00,0.00,0.00
"USC00503502","2001-07-12",62.96,50.00,0.00,0.00,0.00
"USC00503502","2001-07-13",55.94,48.02,25.00,0.00,0.00
"USC00503502","2001-07-14",53.96,48.92,25.00,0.00,0.00
"USC00503502","2001-07-15",59.00,46.04,3.00,0.00,0.00
"USC00503502","2001-07-16",68.00,46.94,0.00,0.00,0.00
"USC00503502","2001-07-17",62.96,51.98,0.00,0.00,0.00
"USC00503502","2001-07-18",66.02,51.98,0.00,0.00,0.00
"USC00503502","2001-07-19",68.00,48.92,0.00,0.00,0.00
"USC00503502","2001-07-20",73.94,50.00,0.00,0.00,0.00
"USC00503502","2001-07-21",71.96,50.00,0.00,0.00,0.00
"USC00503502","2001-07-22",69.08,55.94,18.00,0.00,0.00
"USC00503502","2001-07-23",62.96,53.96,5.00,0.00,0.00
"USC00503502","2001-07-24",62.96,53.06,0.00,0.00,0.00
"USC00503502","2001-07-25",60.98,53.06,5.00,0.00,0.00
"USC00503502","2001-07-26",57.02,51.08,0.00,0.00,0.00
"USC00503502","2001-07-27",57.02,51.08,3.00,0.00,0.00
"USC00503502","2001-07-28",64.94,51.08,3.00,0.00,0.00
"USC00503502","2001-07-29",60.08,53.06,0.00,0.00,0.00
"USC00503502","2001-07-30",62.06,53.06,0.00,0.00,0.00
"USC00503502","2001-07-31",64.04,53.06,0.00,0.00,0.00
"USC00503502","2001-08-01",57.02,51.08,13.00,0.00,0.00
"USC00503502","2001-08-02",68.00,51.08,0.00,0.00,0.00
"USC00503502","2001-08-03",71.06,51.08,0.00,0.00,0.00